Location: Home
(42.5358°N, 72.7383°W)
Time: 15:14:49
(UTC-05:00)

Vanguard 3 - Pass Details

Date: 02 December 2021
Orbit: 508 x 3260 km, 33.3° (Epoch: 20 January)

Event Time Altitude Azimuth Distance (km) Brightness Sun altitude
Rises 05:50:00 0° 255° (WSW) 7,225 - -13.0°
Exits shadow 05:50:36 - 255° (WSW) 7,099 11.4 -12.9°
Reaches altitude 10° 05:55:03 10° 252° (WSW) 6,163 11.1 -12.1°
Maximum altitude 06:13:33 60° 180° (S) 2,872 10.0 -8.9°
Drops below altitude 10° 06:25:34 10° 104° (ESE) 4,187 12.5 -6.9°
Sets 06:28:19 0° 101° (E) 4,871 13.1 -6.4°
